Regional Weather Roundup
Issued by NWS

Home | Current Version | Previous Version | Graphics & Text | Print | Product List | Glossary On
Versions: 1 2 3 4 5 6 7 8 9 10 11 12 13 14 15 16 17 18 19 20 21 22 23 24 25 26 27 28 29 30 31 32 33 34 35 36 37 38 39 40 41 42 43 44 45 46 47 48 49 50
176
ASUS43 KIND 082309
RWRIN

WEATHER ROUNDUP FOR INDIANA
NATIONAL WEATHER SERVICE INDIANAPOLIS IN
600 PM EST MON FEB 08 2016

NOTE: "FAIR" INDICATES FEW OR NO CLOUDS BELOW 12,000 FEET WITH NO
SIGNIFICANT WEATHER AND/OR OBSTRUCTIONS TO VISIBILITY.

* - STATION DOES NOT REPORT WEATHER SUCH AS PRECIPITATION OR FOG.

+ - STATION NOT QUALITY CONTROLLED BY THE NATIONAL WEATHER SERVICE.
    USE DATA WITH CAUTION...ESPECIALLY DEWPOINT AND RELATIVE
    HUMIDITY OBSERVATIONS.

INZ001>003-010>013-019-020-090000-
NORTHWEST INDIANA

CITY           SKY/WX    TMP DP  RH WIND       PRES   REMARKS
GARY /AIRPORT/ CLOUDY    30  21  69 W12       29.73R WCI  21
KNOX *+        CLOUDY    28  23  80 W12       29.71R WCI  18
LA PORTE +     CLOUDY    31  27  84 W7        29.70S WCI  24
MICHIGAN CITY+ FLURRIES  30  27  86 W7        29.71R WCI  23
MONTICELLO +   CLOUDY    26  17  68 W12G20    29.74R WCI  15
RENSSELAER +   CLOUDY    28  19  69 W12       29.74R WCI  18
VALPARAISO     CLOUDY    29  22  75 W12       29.71R WCI  19

$$

LMZ046-743>745-090000-
SOUTHERN LAKE MICHIGAN

STATION/POSITION TIME  TEMP    WIND        PRES    WAVE
                       AIR SEA DIR/SP/G            HT
                 (UTC) (F)     (DEG/KT/KT) (MB)    (FT)
BURNS HARBOR     2200   29     290/ 12/ 17 1006.4R
MICHIGAN CITY    2200   29     250/ 17/ 18   N/A

$$

INZ004-005-014>016-021>024-090000-
NORTH CENTRAL INDIANA

CITY           SKY/WX    TMP DP  RH WIND       PRES   REMARKS
ELKHART          N/A     30  27  86 W13       29.68R WCI  20
GOSHEN         LGT SNOW  30  27  88 W12       29.67R FOG     WCI  20
LOGANSPORT +   SNOW      27  21  80 W12G18    29.73R VSB 1/2 WCI  16
PERU/GRISSOM   FLURRIES  26  23  87 W15       29.70R WCI  14
ROCHESTER +    LGT SNOW  30  23  74 W9        29.70R WCI  22
SOUTH BEND     LGT SNOW  29  25  85 W9        29.69R FOG     WCI  20
WARSAW +       CLOUDY    30  28  93 W13       29.68R WCI  20

$$

INZ006>009-017-018-025>027-090000-
NORTHEAST INDIANA

CITY           SKY/WX    TMP DP  RH WIND       PRES   REMARKS
ANGOLA *+      MOCLDY    34  28  80 W8        29.63R WCI  27
AUBURN +       CLOUDY    34  28  80 W12       29.65R WCI  25
FORT WAYNE     FLURRIES  31  28  89 W15       29.67R WCI  20
HUNTINGTON +   CLOUDY    28  24  84 W9        29.68R FOG     WCI  20

$$

INZ028-029-035-036-043>045-051>053-090000-
WEST CENTRAL INDIANA

CITY           SKY/WX    TMP DP  RH WIND       PRES   REMARKS
GREENCASTLE +  LGT SNOW  23  16  74 W9        29.78R WCI  13
LAFAYETTE      CLOUDY    24  17  74 W15       29.76R WCI  11
TERRE HAUTE    LGT SNOW  23  17  78 W15G23    29.82R WCI  10

$$

INZ030>032-037>040-046>048-054>057-064-065-090000-
CENTRAL INDIANA

CITY           SKY/WX    TMP DP  RH WIND       PRES   REMARKS
COLUMBUS       LGT SNOW  27  27 100 W13       29.75R FOG     WCI  16
FISHERS *+     CLOUDY    25  25 100 W8G22     29.74R WCI  16
FRANKFORT +    LGT SNOW  25  15  64 W16       29.75R WCI  12
GREENWOOD *+   CLOUDY    27  23  86 W10G22    29.74R WCI  17
INDIANAPOLIS   LGT SNOW  25  20  81 W17       29.74R WCI  12
-EAGLE CREEK   LGT SNOW  25  20  81 W15       29.74R WCI  13
KOKOMO *+      CLOUDY    27  19  74 W20       29.71R WCI  13
MARION +       LGT SNOW  27  20  73 W17G23    29.71R WCI  14
MT COMFORT *+  CLOUDY    27  23  86 W17       29.72R WCI  14
SHELBYVILLE    SNOW      28  25  88 W14       29.72R VSB 1/2 WCI  17
ZIONSVILLE +   CLOUDY    24  20  82 W10G21    29.74R HAZE    WCI  14

$$

INZ033-034-041-042-049-050-058-059-090000-
EAST CENTRAL INDIANA

CITY           SKY/WX    TMP DP  RH WIND       PRES   REMARKS
MUNCIE         CLOUDY    30  25  81 NW14      29.68R WCI  19

$$

INZ060-061-067>069-081>083-085>088-090000-
SOUTHWEST INDIANA

CITY           SKY/WX    TMP DP  RH WIND       PRES   REMARKS
EVANSVILLE     LGT SNOW  29  21  72 NW13G22   29.87R WCI  19
HUNTINGBURG *+ CLOUDY    28  21  74 NW15G22   29.84R WCI  17
WASHINGTON +   LGT SNOW  26  23  89 NW16G22   29.83R WCI  13

$$

INZ062-063-066-070>080-084-089>092-090000-
SOUTH CENTRAL AND SOUTHEAST INDIANA

CITY           SKY/WX    TMP DP  RH WIND       PRES   REMARKS
BEDFORD +      CLOUDY    27  23  86 W8        29.79R WCI  18
BLOOMINGTON    LGT SNOW  25  19  78 NW8       29.78R WCI  16
MADISON *+     CLOUDY    30  27  86 W13G22    29.75R WCI  20
NORTH VERNON + LGT SNOW  28  28 100 CALM      29.74R
SEYMOUR +      CLOUDY    30  23  74 W14G21    29.77R WCI  20

$$





USA.gov is the U.S. government's official web portal to all federal, state and local government web resources and services.